ROTAER D-AMDT 14/20 Ver Mudanças

GEN. LEITE DE CASTRO ( SWLC ) / RIO VERDE, GO 17 50 05S/050 57 22W
AD PUB/MIL 6E UTC-3 VFR L21 , L26 751 (2464)

03 - L12 - ( 1500x30 ASPH 19/F/C/Y/U L14 , L15 ) - L12 - 21

SBBS (CINDACTA 1)
CMB- [1] PF TF SER - S1  
MET -

[2]

RMK -

DADOS SOBRE OS PÁTIOS, PISTAS DE TAXI E PONTOS DE VERIFICAÇÃO
  1. RWY 03 últimos 45m CLSD para LDG/TKOF.
OUTRAS LUZES, FONTE SECUNDÁRIA DE ENERGIA
  1. Acionamento do balizamento pelo TEL: (64) 3620-2125, com antecedência mínima de 30MIN.
REGULAMENTOS PARA TRÁFEGO LOCAL
  1. O AD pode ser utilizado regularmente por quaisquer ACFT compatíveis com o RCD 2C ou inferior.
  2. AUTH de OPS Especiais: OPS da ACFT ATR 72.
INFORMAÇÃO ADICIONAL
  1. OBS ACFT agrícola em voo próximo ao AD.
  2. CTC com Administração através dos TEL: (64) 3620-2125 ou (64) 3622-6437
COMPL -
  • [1] Abastecimento pela empresa AEROPREST através dos TEL: (64) 3622-5428 ou (64) 9279-3646
  • [2] Estação de Radiodifusão Automática de Aeródromo (ERAA) FREQ 130.425MHZ H24.
TEMP (1)
INFOTEMP BS0553M/20
OBST MONTADO (EDIFICACAO METALICA) NEG LGTD COORD 175005S/0505712W ELEV 786M

Duração: 20/04/20 13:26 a 28/01/21 23:59 UTC | Divulgação: 20/04/2020 13:26


Suplementos AIP (0)

NOTAM (0)

Nascer/Por do Sol

09:47

21:11


METAR

050400Z AUTO 06003KT CAVOK 17/07 Q1024=

TAF


Cartas (0)


Rotas Preferenciais (0)